ATLAS 5 CENTAUR DEB, 46860

Orbit data source: Space-Track

ATLAS 5 CENTAUR DEB, 46860 is space debris in HEO originally from a launch on Wed, 17 Oct 2018 UTC launched from the Air Force Eastern Test Range (AFETR). Debris objects in space refer to the collection of defunct objects orbiting the Earth. Examples of debris include non-operational satellites, rocket bodies, and fragments generated from explosions, collisions, or faulty payload assembly.

Loading next visibility...
ATLAS 5 CENTAUR DEB details
Identifier
46860, 2018-079DR
Orbit
HEO
Last TLE update1 day ago
Origin
Flag of USULA (US)
ManufacturerULA Decatur
MissionSpacecraft
Bus & MotorUnknown
MassUnknown
Launch date (UTC)
2018-10-17 (6 years ago)
Launch vehicleUnknown
Launch site
Air Force Eastern Test Range (AFETR)
Object type
Payload
Rocket body
Debris
Shape & HBRUnknown
Radar Cross SectionRCS unknown

Expand to show TLE details & history

TLE from 1 day ago
0 ATLAS 5 CENTAUR DEB
1 46860U 18079DR  24339.16466018 -.00000063  00000-0  00000-0 0  9992
2 46860  12.4712 114.5249 5119648 156.0722 240.1778  1.65578595 24710
Epoch: 2024-12-04T03:57Z
Definitive object data (Epoch: 2024-12-04T03:57:06.639Z)
Latitude-0.00001°
Longitude-18.27413°
Altitude35,490.994 km
Speed2.415 km/s
True Right ascension07h 37m 52s
True Declination0° 00' 00"
Sunlit
Object was in daylight at TLE epoch
Visualization TLE readout
Latitude4.78528°
Longitude3.83796°
Altitude28,021.811 km
Speed3.157 km/s
Apparent Right ascension09h 11m 12s
Apparent Declination-2° 20' 39"
Sunlit
Object is in daylight
Visualization observer readout
Local Sidereal Time08:36:52
Azimuth167.367° S
Elevation47.014°
Doppler factor1
Orbital elements
Apogee altitude39,257.607 km
Perigee altitude8,352.265 km
Semi-major axis30,183.073 km
Eccentricity0.5119648
Inclination12.4712°
RAAN114.5249°
Arg. of periapsis156.0722°
True anomaly203.95508°
Mean anomaly240.1778°
Eccentric anomaly220.95193°
Mean motion0.4139 °/min
BSTARUnknown
Orbital period869.77 mins
Loading maneuver chart data...

ATLAS 5 CENTAUR DEB Visibility forecast

Observer location: undefined°, undefined

Span
Click to sort rows by Start time (UTC) header in descending order
Start Az.
Max El. time (UTC)
Max El. Az.
Max El.
End time (UTC)
End Az.
154 mins2024-12-05 10:38:26.954Z167.373° S2024-12-05 11:26:26.954Z161.04° S36.649°2024-12-05 13:12:26.954Z102.764° ESE
264 mins2024-12-06 06:14:26.954Z227.292° WSW2024-12-06 08:58:26.954Z225.096° WSW19.533°2024-12-06 10:38:26.954Z234.328° WSW
|